CST,Max TemperatureF,Mean TemperatureF,Min TemperatureF,Max Dew PointF,MeanDew PointF,Min DewpointF,Max Humidity, Mean Humidity, Min Humidity, Max Sea Level PressureIn, Mean Sea Level PressureIn, Min Sea Level PressureIn, Max VisibilityMiles, Mean VisibilityMiles, Min VisibilityMiles, Max Wind SpeedMPH, Mean Wind SpeedMPH, Max Gust SpeedMPH,PrecipitationIn, CloudCover, Events, WindDirDegrees
2012-12-1,53,44,35,52,40,34,100,90,76,30.13,29.93,29.81,5,3,1,8,4,,0.00,8,Rain,112
2012-12-2,51,42,33,50,42,32,100,95,87,30.02,29.95,29.83,4,1,0,7,2,,0.00,6,Fog,291
2012-12-3,66,54,41,57,48,34,100,81,58,29.98,29.79,29.63,10,7,1,20,7,28,0.00,6,,180
2012-12-4,51,40,26,34,27,18,81,60,40,30.37,30.15,29.99,10,10,10,20,6,26,0.00,0,,297
2012-12-5,37,28,19,27,17,12,80,57,41,30.44,30.30,30.10,10,10,10,10,4,17,0.00,0,,114
2012-12-6,46,42,37,37,33,28,81,70,61,30.09,29.94,29.86,10,10,10,13,7,17,0.00,5,Rain,185
2012-12-7,42,38,33,32,25,21,81,64,42,29.99,29.96,29.91,10,10,10,10,3,,0.00,6,,2
2012-12-8,39,32,24,28,24,21,86,70,52,30.06,30.03,29.97,10,10,10,8,3,,0.00,2,,84
2012-12-9,35,32,28,32,31,27,100,92,75,30.04,29.87,29.75,10,6,0,14,5,18,0.28,8,Rain-Snow,106
2012-12-10,32,24,15,28,21,14,93,86,80,29.97,29.88,29.76,10,10,5,16,7,23,0.00,7,Snow,280
2012-12-11,30,22,14,25,18,12,100,80,64,30.07,29.95,29.90,10,10,3,9,3,,0.00,6,Snow,199
2012-12-12,44,34,23,25,22,18,86,61,39,30.14,30.08,30.04,10,10,10,16,4,24,0.07,1,,147
2012-12-13,44,35,26,25,21,18,86,55,43,30.12,30.08,30.02,10,10,10,12,6,18,0.00,0,,190
2012-12-14,46,34,23,32,27,21,93,75,46,30.15,30.05,29.88,10,10,7,10,3,,0.00,1,,110
2012-12-15,42,40,39,43,39,32,100,91,66,29.87,29.61,29.50,10,4,1,15,7,22,0.46,8,Rain,106
2012-12-16,42,36,30,43,33,27,100,88,81,29.77,29.66,29.51,10,7,0,15,7,18,0.01,8,,277
2012-12-17,28,26,23,27,23,21,93,86,80,29.77,29.74,29.71,10,7,4,10,4,,0.00,8,,322
2012-12-18,32,30,28,30,28,25,93,88,80,29.87,29.70,29.58,7,4,0,12,3,,0.00,8,Snow,37
2012-12-19,33,32,30,30,30,28,100,90,87,30.02,29.96,29.81,7,4,1,10,2,,0.02,8,Snow,73
2012-12-20,32,28,23,30,26,18,93,86,74,29.84,29.62,29.45,10,3,0,28,13,39,0.00,8,Snow,332
2012-12-21,23,16,6,18,9,5,92,71,54,30.26,30.12,29.85,10,10,7,23,13,32,0.00,1,,300
2012-12-22,28,16,3,14,7,0,92,78,47,30.24,30.09,29.97,10,10,10,9,1,,0.00,0,,112
2012-12-23,23,14,6,18,12,5,93,87,74,30.09,30.03,29.97,10,9,7,12,1,,0.00,3,,41
2012-12-24,24,18,12,21,16,9,93,85,68,30.21,30.02,29.93,10,8,2,13,2,,0.00,6,,329
2012-12-25,19,10,1,9,5,-2,85,74,63,30.41,30.34,30.22,10,10,10,12,4,,0.00,0,,327
2012-12-26,23,13,3,14,8,0,92,79,63,30.34,30.24,30.18,10,10,4,12,4,,0.00,4,,319
2012-12-27,24,12,1,19,10,-2,92,80,69,30.25,30.19,30.11,10,10,7,7,1,,0.00,5,,55
2012-12-28,28,26,23,25,22,19,93,87,80,30.10,30.01,29.94,10,5,2,6,1,,0.02,8,Snow,336
2012-12-29,23,14,5,21,14,1,93,81,73,30.24,30.08,29.95,10,10,4,14,5,18,0.00,6,,294
2012-12-30,33,19,5,25,12,1,92,78,65,30.29,30.15,29.96,10,8,5,13,3,,0.00,1,Snow,148
2012-12-31,33,19,5,23,10,-2,86,72,58,30.23,30.10,29.96,10,10,7,13,8,16,0.00,1,,291